Location: Dittelbrunn
(50.0738°N, 10.2196°E)
Time: 01:55:54
(UTC+00:00)

Cosmos 1943 - Pass Details

Date: 18 September 2020
Orbit: 833 x 851 km, 71.0° (Epoch: 30 October)

Event Time Altitude Azimuth Distance (km) Brightness Sun altitude
Rises 18:00:59 0° 330° (NNW) 3,400 7.0 -6.5°
Reaches altitude 10° 18:03:25 10° 330° (NNW) 2,464 6.3 -6.9°
Maximum altitude 18:09:05 84° 243° (WSW) 853 3.3 -7.8°
Drops below altitude 10° 18:14:45 10° 156° (SSE) 2,460 5.3 -8.7°
Sets 18:17:11 0° 156° (SSE) 3,394 6.0 -9.1°
